{"data":{"norad_id":62652,"intl_designator":"2025-009AV","name":"FLOCK 4G-31","alt_names":[],"object_type":"PAYLOAD","status":"ACTIVE","operator":null,"country":"US","launch_date":"2025-01-14","launch_site_code":"AFWTR","launch_vehicle":null,"mission":null,"orbit_class":"UNKNOWN","rcs_meters":null,"size_class":null,"mass_kg":null,"dimensions":null,"purposes":["earth_obs"],"wikipedia_slug":null,"has_3d_model":false,"image_url":null,"decayed_at":null,"tle_current":{"epoch":"2026-09-19T12:46:35.386464Z","epoch_age_seconds":97979,"freshness":"FRESH","line1":"1 62652U 25009AV  26262.53235401  .00006601  00000+0  22499-3 0  9999","line2":"2 62652  97.3912 343.6466 0001540  45.0644 315.0722 15.30707853 93336","mean_motion":15.30707853,"eccentricity":0.000154,"inclination_deg":97.3912,"raan_deg":343.6466,"arg_perigee_deg":45.0644,"mean_anomaly_deg":315.0722,"bstar":0.00022499,"rev_number":9333,"period_min":94.074123757697,"perigee_km":472.64394839694,"apogee_km":474.75431392534,"semimajor_km":6851.8361311611,"source":"CELESTRAK","updated_at":"2026-09-20T09:00:34.721593Z"}}}